[[{"header":{"parameterUnit":"m.s-1","parameterCategory":1,"la1":30.2991,"la2":30.254,"lo1":-89.0895,"lo2":-89.0444,"dy":0.0017,"dx":0.0017,"nx":28,"ny":28,"refTime":"2024-03-28T09:00:00:Z","depth":0,"parameterNumber":2,"parameterNumberName":"U-component_of_WINDS"},"data":[0,0,0,0,0,0,0,0,0,0,0,0,0,0,0,0,0,0,0,0,0,0,0,0,0,0,0,0,0,0,0,0,0,0,0,0,0,0,0,0,0,0,0,0,0,0,0,0,0,0,0,0,0,0,0,0,0,0,-2.225,-2.225,0,-2.2247,-2.2247,-2.2247,-2.212,-2.2117,-2.2114,-2.2111,-2.2109,-2.2112,-2.2115,0,0,0,0,0,0,0,0,0,0,0,0,0,-2.2148,-2.215,-2.225,-2.225,-2.225,-2.2247,-2.2247,-2.2247,-2.2121,-2.2117,-2.2113,-2.2109,-2.2108,-2.2112,-2.2116,0,0,0,0,0,0,0,0,0,0,0,0,0,-2.2173,-2.2151,-2.225,-2.2187,-2.2181,-2.2247,-2.2247,-2.2247,-2.2122,-2.2117,-2.2112,-2.2107,-2.2107,-2.2112,-2.2116,-2.2243,0,0,-2.213,-2.2132,0,0,0,0,0,0,0,0,-2.2172,-2.2177,-2.2196,-2.2191,-2.2185,-2.2179,-2.221,-2.2245,-2.2123,-2.2144,-2.2111,-2.2105,-2.2137,-2.2138,-2.2149,-2.2243,-2.2242,-2.213,-2.2133,-2.2135,-2.2136,0,0,0,0,0,0,0,-2.217,-2.2177,-2.2248,-2.2196,-2.219,-2.2159,-2.2157,-2.2216,-2.2168,-2.2142,-2.2133,-2.2134,-2.2133,-2.2145,-2.2148,-2.2242,-2.213,-2.2134,-2.2137,-2.2139,-2.2441,-2.2446,0,0,0,0,0,0,-2.2177,-2.2176,-2.2249,-2.2248,-2.2166,-2.2165,-2.2162,-2.2186,-2.2167,-2.216,-2.2138,-2.2128,-2.2139,-2.2143,-2.2147,-2.2295,-2.2135,-2.2139,-2.2142,-2.2435,-2.2442,-2.2447,0,0,0,0,0,0,-2.2175,-2.2185,-2.2249,-2.221,-2.2215,-2.2172,-2.2199,-2.2188,-2.22,-2.2164,-2.2155,-2.216,-2.2136,-2.2141,-2.222,-2.2293,-2.2141,-2.2145,-2.2429,-2.2437,-2.2445,-2.2592,0,0,0,0,0,0,-2.2173,-2.2185,-2.2233,-2.2212,-2.2218,-2.2322,-2.2203,-2.2192,-2.2208,-2.2195,-2.2182,-2.2175,-2.2132,-2.2214,-2.2224,-2.2297,-2.2149,-2.2422,-2.2433,-2.2442,-2.258,-2.2604,-2.2624,0,0,0,0,0,-2.217,-2.2274,-2.2236,-2.2245,-2.2276,-2.2326,-2.233,-2.2278,-2.2215,-2.2262,-2.2239,-2.2175,-2.2283,-2.2223,-2.2234,-2.2309,-2.2418,-2.243,-2.2441,-2.257,-2.2599,-2.2623,0,0,0,0,0,0,-2.2305,-2.227,-2.2227,-2.2328,-2.2331,-2.2305,-2.2363,-2.231,-2.2332,-2.2318,-2.2253,-2.2252,-2.2341,-2.2332,-2.2266,-2.243,-2.2339,-2.2354,-2.2433,-2.246,-2.2482,-2.2483,-2.2153,0,0,0,0,0,-2.2347,-2.239,-2.2357,-2.2449,-2.2452,-2.2408,-2.2428,-2.2387,-2.2388,-2.2389,-2.2372,-2.2375,-2.241,-2.2434,-2.2464,-2.2577,-2.2573,-2.2634,-2.2656,-2.2674,-2.2688,-2.2749,-2.2776,-2.2487,-2.2486,-2.2486,0,0,-2.2434,-2.2419,-2.2451,-2.2476,-2.2473,-2.252,-2.241,-2.2464,-2.2498,-2.2397,-2.2471,-2.2459,-2.2458,-2.2556,-2.2597,-2.2551,-2.2767,-2.2689,-2.2704,-2.2708,-2.2764,-2.2791,-2.2816,-2.2495,-2.2493,-2.2492,0,0,-2.2615,-2.2608,-2.2685,-2.2685,-2.2682,-2.2652,-2.267,-2.2652,-2.264,-2.2712,-2.2638,-2.2678,-2.2738,-2.2742,-2.2751,-2.2934,-2.2876,-2.2945,-2.306,-2.312,-2.3143,-2.3163,-2.3229,-2.3254,-2.2959,-2.2959,-2.2959,0,-2.2723,-2.279,-2.2731,-2.279,-2.2804,-2.2713,-2.2791,-2.2793,-2.2802,-2.2813,-2.276,-2.2835,-2.2828,-2.2926,-2.297,-2.298,-2.3,-2.2947,-2.3144,-2.3163,-2.3181,-2.3244,-2.3269,-2.2968,-2.2967,-2.2966,-2.2965,0,-2.2924,-2.2971,-2.3033,-2.3043,-2.3063,-2.3131,-2.3083,-2.311,-2.3068,-2.3043,-2.3119,-2.3108,-2.3134,-2.3153,-2.3113,-2.3246,-2.3217,-2.3155,-2.3062,-2.3218,-2.3276,-2.33,-2.298,-2.2977,-2.2974,-2.2972,0,0,-2.3193,-2.3168,-2.3192,-2.3196,-2.3186,-2.3222,-2.3286,-2.3311,-2.3336,-2.3344,-2.3397,-2.345,-2.3393,-2.3404,-2.3363,-2.3415,-2.3562,-2.3346,-2.3345,-2.3389,-2.3709,-2.3757,-2.3786,-2.3523,-2.3527,-2.353,-2.371,0,-2.337,-2.3478,-2.3426,-2.354,-2.3584,-2.3499,-2.3554,-2.3555,-2.3533,-2.3567,-2.3543,-2.3582,-2.3503,-2.3509,-2.3557,-2.3534,-2.3626,-2.352,-2.3573,-2.3575,-2.3578,-2.3816,-2.3867,-2.4036,-2.3732,-2.3735,-2.3738,0,-2.3592,-2.3609,-2.3728,-2.371,-2.3727,-2.3778,-2.3797,-2.383,-2.3829,-2.3809,-2.3822,-2.3768,-2.383,-2.3736,-2.3821,-2.3751,-2.3769,-2.3761,-2.3766,-2.3771,-2.3668,-2.3829,-2.4089,-2.4116,-2.3773,-2.377,-2.3768,0,-2.3779,-2.3831,-2.3909,-2.3914,-2.3895,-2.3934,-2.3928,-2.3921,-2.394,-2.3956,-2.3968,-2.3992,-2.4005,-2.4025,-2.398,-2.3916,-2.4072,-2.3974,-2.4059,-2.406,-2.4097,-2.4096,-2.4366,-2.4106,-2.4105,-2.4105,-2.4104,0,-2.3983,-2.406,-2.3993,-2.4041,-2.4124,-2.4063,-2.4148,-2.4132,-2.4127,-2.4171,-2.4098,-2.4142,-2.4078,-2.4115,-2.4079,-2.4156,-2.4162,-2.4149,-2.4139,-2.4157,-2.4159,-2.4169,-2.4157,-2.4112,-2.411,-2.4109,-2.4108,0,-2.4207,-2.4165,-2.4244,-2.422,-2.4215,-2.4278,-2.4257,-2.4301,-2.4273,-2.433,-2.434,-2.4298,-2.4338,-2.4293,-2.433,-2.4306,-2.441,-2.4381,-2.4411,-2.4404,-2.4491,-2.4484,-2.4779,-2.4816,-2.4531,-2.4533,-2.4536,0,-2.4341,-2.4398,-2.4379,-2.4404,-2.4402,-2.4442,-2.446,-2.4402,-2.4425,-2.4427,-2.4471,-2.4505,-2.4528,-2.4596,-2.4569,-2.4596,-2.4569,-2.4671,-2.4573,-2.4589,-2.4573,-2.4571,-2.4577,-2.4691,-2.4695,-2.4698,-2.47,0,-2.4585,-2.4561,-2.4591,-2.4613,-2.4637,-2.4652,-2.4661,-2.4685,-2.4625,-2.4654,-2.4693,-2.4712,-2.4748,-2.4783,-2.4803,-2.4796,-2.474,-2.473,-2.4752,-2.4772,-2.4787,-2.4782,-2.4467,-2.4724,-2.4722,-2.472,-2.4719,-2.4718,-2.4769,-2.4816,-2.4811,-2.4846,-2.4846,-2.4857,-2.4897,-2.4874,-2.4906,-2.4931,-2.4895,-2.4945,-2.4942,-2.4962,-2.4963,-2.5001,-2.4958,-2.4988,-2.4996,-2.5006,-2.502,-2.4779,-2.5004,-2.5003,-2.5003,-2.5002,-2.5001,0,-2.5011,-2.5003,-2.5036,-2.5051,-2.5079,-2.502,-2.5028,-2.5055,-2.5099,-2.5101,-2.5126,-2.5172,-2.5205,-2.518,-2.5208,-2.5243,-2.5218,-2.5253,-2.525,-2.525,-2.5056,-2.5035,-2.5273,-2.5273,-2.5273,-2.5273,-2.5273,-2.5273,-2.514,-2.5217,-2.5192,-2.5268,-2.5259,-2.5307,-2.5316,-2.5326,-2.5327,-2.5381,-2.5408,-2.5391,-2.5383,-2.5409,-2.5437,-2.5429,-2.5443,-2.5488,-2.5471,-2.529,-2.5264,-2.5238,-2.5219,-2.5491,-2.5492,-2.5662,-2.5664,-2.5665]},{"header":{"parameterUnit":"m.s-1","parameterCategory":1,"la1":30.2991,"la2":30.254,"lo1":-89.0895,"lo2":-89.0444,"dy":0.0017,"dx":0.0017,"nx":28,"ny":28,"refTime":"2024-03-28T09:00:00:Z","depth":0,"parameterNumber":3,"parameterNumberName":"V-component_of_WINDS"},"data":[0,0,0,0,0,0,0,0,0,0,0,0,0,0,0,0,0,0,0,0,0,0,0,0,0,0,0,0,0,0,0,0,0,0,0,0,0,0,0,0,0,0,0,0,0,0,0,0,0,0,0,0,0,0,0,0,0,0,-2.3331,-2.3332,0,-2.343,-2.3431,-2.3432,-2.3435,-2.3433,-2.3432,-2.3431,-2.3529,-2.3533,-2.3536,0,0,0,0,0,0,0,0,0,0,0,0,0,-2.3141,-2.3144,-2.3331,-2.3332,-2.3333,-2.343,-2.3431,-2.3432,-2.3435,-2.3433,-2.3432,-2.3431,-2.3528,-2.3532,-2.3537,0,0,0,0,0,0,0,0,0,0,0,0,0,-2.323,-2.3145,-2.3331,-2.3346,-2.3349,-2.3429,-2.3431,-2.3433,-2.3435,-2.3433,-2.3432,-2.343,-2.3526,-2.3532,-2.3537,-2.3608,0,0,-2.3554,-2.3557,0,0,0,0,0,0,0,0,-2.3225,-2.3237,-2.3343,-2.3345,-2.3348,-2.3418,-2.34,-2.3491,-2.3436,-2.3402,-2.3431,-2.3429,-2.3493,-2.3502,-2.3524,-2.3613,-2.3617,-2.3555,-2.3558,-2.3561,-2.3562,0,0,0,0,0,0,0,-2.3219,-2.3232,-2.337,-2.3344,-2.3348,-2.3347,-2.3358,-2.3417,-2.3457,-2.3405,-2.3405,-2.3417,-2.3494,-2.3519,-2.3526,-2.3618,-2.3555,-2.356,-2.3563,-2.3565,-2.377,-2.3772,0,0,0,0,0,0,-2.321,-2.3227,-2.3367,-2.3373,-2.3281,-2.3352,-2.3364,-2.3397,-2.3456,-2.3463,-2.3419,-2.3417,-2.351,-2.352,-2.353,-2.3616,-2.3561,-2.3566,-2.3569,-2.3768,-2.377,-2.3772,0,0,0,0,0,0,-2.3206,-2.3222,-2.3363,-2.33,-2.3318,-2.3357,-2.3395,-2.34,-2.3425,-2.3466,-2.3473,-2.3436,-2.3509,-2.3522,-2.3589,-2.362,-2.3568,-2.3573,-2.3765,-2.3768,-2.3771,-2.379,0,0,0,0,0,0,-2.32,-2.3221,-2.3249,-2.3301,-2.3322,-2.3421,-2.3397,-2.3404,-2.3435,-2.3433,-2.3485,-2.3491,-2.3508,-2.358,-2.3594,-2.3627,-2.3578,-2.3762,-2.3767,-2.377,-2.3787,-2.3794,-2.3799,0,0,0,0,0,-2.3193,-2.325,-2.325,-2.3267,-2.3358,-2.3423,-2.3435,-2.3454,-2.3437,-2.3465,-2.3492,-2.349,-2.3614,-2.3587,-2.3603,-2.3637,-2.3761,-2.3765,-2.377,-2.3784,-2.3792,-2.3799,0,0,0,0,0,0,-2.3199,-2.3257,-2.3258,-2.3333,-2.3373,-2.3423,-2.3459,-2.3462,-2.3507,-2.3504,-2.3525,-2.3536,-2.3603,-2.3627,-2.3596,-2.3709,-2.3685,-2.3693,-2.3691,-2.3699,-2.3705,-2.3698,-2.3582,0,0,0,0,0,-2.3209,-2.3258,-2.3306,-2.3367,-2.3387,-2.342,-2.3449,-2.3461,-2.3503,-2.3519,-2.3551,-2.3591,-2.3639,-2.367,-2.3717,-2.3791,-2.3801,-2.3822,-2.3828,-2.3833,-2.3839,-2.388,-2.389,-2.3788,-2.3788,-2.3787,0,0,-2.323,-2.3268,-2.3297,-2.3369,-2.3402,-2.3451,-2.3434,-2.3487,-2.3524,-2.3527,-2.3593,-2.3617,-2.3663,-2.3734,-2.3766,-2.3756,-2.387,-2.3839,-2.3842,-2.3846,-2.3886,-2.3895,-2.3904,-2.3791,-2.379,-2.379,0,0,-2.3294,-2.3328,-2.3383,-2.3416,-2.3466,-2.3487,-2.35,-2.355,-2.3567,-2.3633,-2.3636,-2.368,-2.3762,-2.3795,-2.3822,-2.3898,-2.3898,-2.3913,-2.3945,-2.3984,-2.3992,-2.3999,-2.4026,-2.4035,-2.3919,-2.3919,-2.3919,0,-2.3313,-2.339,-2.341,-2.3464,-2.3495,-2.3501,-2.3556,-2.3587,-2.3649,-2.367,-2.3657,-2.3761,-2.3792,-2.3871,-2.3889,-2.3911,-2.3926,-2.3907,-2.3989,-2.3997,-2.4004,-2.403,-2.404,-2.3921,-2.392,-2.392,-2.392,0,-2.3411,-2.3464,-2.3502,-2.3563,-2.3598,-2.3652,-2.368,-2.3713,-2.3722,-2.3744,-2.3811,-2.3849,-2.3903,-2.3922,-2.3931,-2.4002,-2.3994,-2.3985,-2.3962,-2.4015,-2.4039,-2.4049,-2.3923,-2.3922,-2.3922,-2.3921,0,0,-2.3481,-2.3553,-2.3567,-2.3594,-2.365,-2.369,-2.3744,-2.3799,-2.3827,-2.3869,-2.3914,-2.3984,-2.3976,-2.4007,-2.4019,-2.4054,-2.4111,-2.4041,-2.4042,-2.4052,-2.4192,-2.4198,-2.4209,-2.4111,-2.4113,-2.4115,-2.4188,0,-2.3551,-2.3648,-2.3668,-2.3752,-2.3801,-2.3807,-2.3854,-2.3892,-2.3915,-2.3958,-2.3982,-2.4031,-2.4017,-2.4036,-2.4071,-2.4097,-2.4139,-2.4092,-2.4153,-2.4155,-2.4141,-2.4222,-2.4229,-2.4296,-2.4198,-2.4199,-2.42,0,-2.3645,-2.3691,-2.378,-2.383,-2.3851,-2.3893,-2.3944,-2.3986,-2.4029,-2.4043,-2.4077,-2.4086,-2.4141,-2.4115,-2.4191,-2.4158,-2.4184,-2.4201,-2.4204,-2.421,-2.4181,-2.4231,-2.4318,-2.4328,-2.4216,-2.4215,-2.4214,0,-2.3687,-2.3771,-2.3836,-2.3859,-2.3918,-2.3947,-2.3973,-2.4015,-2.4046,-2.409,-2.4111,-2.416,-2.4187,-2.4225,-2.4246,-2.4225,-2.4321,-2.4296,-2.4333,-2.4332,-2.4352,-2.4351,-2.4445,-2.4369,-2.4369,-2.4369,-2.4369,0,-2.3763,-2.3817,-2.3855,-2.3895,-2.3956,-2.3977,-2.4037,-2.4062,-2.4099,-2.4142,-2.415,-2.4191,-2.4216,-2.426,-2.4277,-2.4337,-2.4349,-2.4361,-2.4365,-2.436,-2.4359,-2.4378,-2.4373,-2.4372,-2.4371,-2.437,-2.437,0,-2.382,-2.3848,-2.3919,-2.3969,-2.3983,-2.4025,-2.4067,-2.4105,-2.4128,-2.4183,-2.4197,-2.4231,-2.4284,-2.4308,-2.4372,-2.4384,-2.4452,-2.4453,-2.4438,-2.4439,-2.4474,-2.447,-2.4584,-2.46,-2.4513,-2.4514,-2.4514,0,-2.3867,-2.3909,-2.3964,-2.3995,-2.4021,-2.407,-2.4102,-2.4125,-2.4158,-2.4211,-2.4242,-2.4295,-2.4339,-2.4421,-2.4451,-2.45,-2.4502,-2.4538,-2.4509,-2.4504,-2.4503,-2.45,-2.4504,-2.4544,-2.4544,-2.4545,-2.4546,0,-2.3947,-2.3959,-2.4005,-2.4057,-2.4096,-2.4137,-2.4178,-2.4202,-2.4231,-2.4268,-2.4322,-2.4356,-2.4422,-2.4474,-2.4525,-2.455,-2.4553,-2.4555,-2.4566,-2.4562,-2.4551,-2.4557,-2.4452,-2.4552,-2.4551,-2.4551,-2.455,-2.455,-2.4,-2.4038,-2.4083,-2.4135,-2.4168,-2.4206,-2.4244,-2.4271,-2.4317,-2.4374,-2.4384,-2.4441,-2.4483,-2.4552,-2.4579,-2.4623,-2.4615,-2.4631,-2.4635,-2.4638,-2.464,-2.4544,-2.4633,-2.4633,-2.4632,-2.4632,-2.4632,0,-2.4081,-2.411,-2.4157,-2.4215,-2.4255,-2.4255,-2.43,-2.4334,-2.4384,-2.4424,-2.4467,-2.4528,-2.4579,-2.4613,-2.4664,-2.4693,-2.4695,-2.4705,-2.4703,-2.4709,-2.4645,-2.4631,-2.4703,-2.4703,-2.4703,-2.4703,-2.4702,-2.4702,-2.4127,-2.4191,-2.4208,-2.4288,-2.4316,-2.4373,-2.4399,-2.4434,-2.4465,-2.4534,-2.4577,-2.4599,-2.4636,-2.469,-2.4736,-2.4745,-2.4763,-2.4773,-2.4781,-2.4721,-2.4714,-2.4707,-2.4693,-2.4777,-2.4777,-2.4842,-2.4842,-2.4843]}]]